Dyersburg, TN

11:05 PM CST on December 09, 2019 (GMT -0600)
Dyersburg Municipal

Weather History for KDYR - October, 2019

Change the Weather History Date:

Friday, October 11, 2019

  Actual Average Record
Temperature  
Mean Temperature 59 °F -  
Max Temperature 72 °F 70 °F 89 °F (2010)
Min Temperature 46 °F 49 °F 35 °F (2000)
Degree Days  
Heating Degree Days 6    
Growing Degree Days 9 (Base 50)    
Moisture  
Dew Point 59 °F    
Average Humidity 89    
Maximum Humidity 100    
Minimum Humidity 76    
Precipitation  
Precipitation 1.18 in - - ()
Sea Level Pressure  
Sea Level Pressure 30.05 in    
Wind  
Wind Speed 7 mph ()    
Max Wind Speed 14 mph    
Max Gust Speed 23 mph    
Visibility 9.0 miles    
Events Rain    
Averages and records for this station are not official NWS values.
T = Trace of Precipitation, MM = Missing Value Source: Averaged Metar Reports

Daily Weather History Graph

Daily Weather History Graph

Search for Another Location

Airport or City:

Astronomy

Oct. 11, 2019 Rise Set
Actual Time 7:00 AM CDT 6:27 PM CDT
Civil Twilight 6:35 AM CDT 6:53 PM CDT
Nautical Twilight 6:05 AM CDT 7:22 PM CDT
Astronomical Twilight 5:35 AM CDT 7:52 PM CDT
Moon 5:51 PM CDT (10/11) 4:48 AM CDT (10/11)
Length of Visible Light 12h 18m
Length of Day
11h 26m
Waxing Gibbous, 96% of the Moon is Illuminated
Oct 11
Waxing Gibbous
Oct 13
Full
Oct 21
Last Quarter
Oct 27
New
Nov 4
First Quarter

Hourly Weather History & Observations

Time (CDT) Temp. Windchill Dew Point Humidity Pressure Visibility Wind Dir Wind Speed Gust Speed Precip Events Conditions
12:56 AM 72.0 °F - 66.0 °F 81% 29.96 in 10.0 mi SSE 9.2 mph - N/A   Scattered Clouds
1:56 AM 72.0 °F - 66.0 °F 81% 29.95 in 10.0 mi SSE 9.2 mph - N/A   Clear
2:56 AM 71.1 °F - 64.9 °F 81% 29.95 in 10.0 mi SSE 6.9 mph - N/A   Scattered Clouds
3:56 AM 70.0 °F - 64.9 °F 84% 29.95 in 10.0 mi SSE 5.8 mph - N/A   Clear
4:56 AM 70.0 °F - 64.0 °F 81% 29.96 in 10.0 mi South 5.8 mph - N/A   Mostly Cloudy
5:56 AM 71.1 °F - 64.0 °F 78% 29.96 in 10.0 mi South 5.8 mph - N/A   Overcast
6:56 AM 71.1 °F - 64.0 °F 78% 29.96 in 10.0 mi Variable 4.6 mph - N/A   Scattered Clouds
7:56 AM 70.0 °F - 64.9 °F 84% 29.99 in 10.0 mi Variable 4.6 mph - 0.00 in Rain Rain
8:51 AM 66.2 °F - 66.2 °F 100% 30.01 in 6.0 mi SW 4.6 mph - 0.18 in Rain Heavy Rain
8:56 AM 66.9 °F - 66.9 °F 100% 30.02 in 6.0 mi SW 4.6 mph - 0.21 in Rain Heavy Rain
9:16 AM 68.0 °F - 66.2 °F 94% 30.02 in 2.5 mi West 5.8 mph - 0.25 in Rain Heavy Rain
9:25 AM 68.0 °F - 66.2 °F 94% 30.02 in 5.0 mi SW 8.1 mph - 0.35 in Rain Heavy Rain
9:34 AM 68.0 °F - 66.2 °F 94% 30.01 in 3.0 mi SSW 5.8 mph - 0.49 in Rain Heavy Rain
9:56 AM 68.0 °F - 66.9 °F 96% 30.02 in 10.0 mi SSW 4.6 mph - 0.64 in Rain Light Rain
10:04 AM 68.0 °F - 66.2 °F 94% 30.00 in 10.0 mi South 5.8 mph - 0.00 in Rain Light Rain
10:46 AM 69.8 °F - 68.0 °F 94% 30.00 in 10.0 mi SSE 4.6 mph - 0.00 in Rain Light Rain
10:56 AM 69.1 °F - 68.0 °F 96% 30.02 in 10.0 mi Variable 5.8 mph - 0.00 in Rain Light Rain
11:10 AM 69.8 °F - 68.0 °F 94% 30.00 in 9.0 mi Variable 3.5 mph - 0.01 in Rain Light Rain
11:21 AM 69.8 °F - 69.8 °F 100% 30.00 in 8.0 mi Variable 4.6 mph - 0.03 in Rain Light Rain
11:37 AM 69.8 °F - 69.8 °F 100% 30.00 in 10.0 mi South 5.8 mph - 0.04 in Rain Light Rain
11:56 AM 69.1 °F - 69.1 °F 100% 30.01 in 10.0 mi South 4.6 mph - 0.05 in Rain Light Rain
12:29 PM 64.4 °F - 64.4 °F 100% 30.00 in 5.0 mi WNW 13.8 mph 23.0 mph 0.11 in Rain Heavy Rain
12:56 PM 61.0 °F - 61.0 °F 100% 30.02 in 5.0 mi WNW 11.5 mph - 0.25 in Rain Heavy Rain
1:21 PM 59.0 °F - 57.2 °F 94% 30.02 in 10.0 mi West 9.2 mph - 0.03 in   Overcast
1:56 PM 55.9 °F - 54.0 °F 93% 30.07 in 10.0 mi WNW 13.8 mph 21.9 mph 0.03 in   Overcast
2:09 PM 55.4 °F - 53.6 °F 94% 30.05 in 10.0 mi NW 9.2 mph 16.1 mph N/A   Overcast
2:27 PM 55.4 °F - 53.6 °F 94% 30.05 in 10.0 mi NNW 10.4 mph - N/A   Overcast
2:56 PM 55.0 °F - 52.0 °F 89% 30.09 in 10.0 mi NW 10.4 mph - N/A   Overcast
3:56 PM 53.1 °F - 51.1 °F 93% 30.10 in 10.0 mi WNW 11.5 mph 16.1 mph N/A   Overcast
4:56 PM 52.0 °F - 48.0 °F 86% 30.14 in 10.0 mi NW 10.4 mph - N/A   Overcast
5:30 PM 53.6 °F - 48.2 °F 82% 30.14 in 10.0 mi NNW 10.4 mph - N/A   Overcast
5:56 PM 52.0 °F - 46.0 °F 80% 30.15 in 10.0 mi NNW 11.5 mph 17.3 mph N/A   Overcast
6:56 PM 51.1 °F - 46.0 °F 83% 30.18 in 10.0 mi NNW 8.1 mph - N/A   Overcast
7:13 PM 51.8 °F - 44.6 °F 76% 30.15 in 10.0 mi NNW 11.5 mph - N/A   Overcast
7:56 PM 50.0 °F - 45.0 °F 83% 30.19 in 10.0 mi NNW 5.8 mph - N/A   Mostly Cloudy
8:56 PM 48.9 °F - 45.0 °F 86% 30.22 in 10.0 mi NNW 4.6 mph - N/A   Partly Cloudy
9:56 PM 48.9 °F - 45.0 °F 86% 30.23 in 10.0 mi NNW 6.9 mph - N/A   Scattered Clouds
10:56 PM 46.9 °F - 42.1 °F 83% 30.25 in 10.0 mi North 4.6 mph - N/A   Clear
11:56 PM 46.0 °F 41.4 °F 39.9 °F 79% 30.25 in 10.0 mi NNW 9.2 mph - N/A   Clear